| time (UTC) | temp C | wind direction | speed KPH | gust KPH | rain 1hr cm | rain 24hr cm | rain mn cm | humidity % | barometer mb |
| 20260831085803 | 21 | 239 | 0.0 | 4.8 | 0.00 | 0.51 | 0.51 | 70 | 1017.6 |
| 20260831085306 | 21 | 201 | 0.0 | 3.2 | 0.00 | 0.51 | 0.51 | 72 | 1017.5 |
| 20260831084804 | 21 | 336 | 0.0 | 4.8 | 0.00 | 0.51 | 0.51 | 73 | 1017.5 |
| 20260831084303 | 21 | 319 | 0.0 | 4.8 | 0.00 | 0.51 | 0.51 | 75 | 1017.5 |
| 20260831083804 | 21 | 280 | 1.6 | 8.0 | 0.00 | 0.51 | 0.51 | 76 | 1017.5 |
| 20260831083303 | 21 | 282 | 1.6 | 9.7 | 0.00 | 0.51 | 0.51 | 72 | 1017.5 |
| 20260831082803 | 21 | 324 | 1.6 | 8.0 | 0.00 | 0.51 | 0.51 | 74 | 1017.5 |
| 20260831082306 | 21 | 289 | 3.2 | 9.7 | 0.00 | 0.51 | 0.51 | 75 | 1017.4 |
| 20260831081804 | 20 | 334 | 0.0 | 14.5 | 0.00 | 0.51 | 0.51 | 75 | 1017.4 |
| 20260831080804 | 21 | 310 | 0.0 | 14.5 | 0.00 | 0.51 | 0.51 | 75 | 1016.7 |
| 20260831080304 | 21 | 315 | 1.6 | 11.3 | 0.00 | 0.51 | 0.51 | 75 | 1016.7 |
| 20260831075804 | 20 | 295 | 1.6 | 9.7 | 0.00 | 0.51 | 0.51 | 74 | 1016.7 |
| 20260831075306 | 20 | 313 | 3.2 | 8.0 | 0.00 | 0.51 | 0.51 | 79 | 1016.7 |
| 20260831074804 | 20 | 286 | 1.6 | 12.9 | 0.00 | 0.51 | 0.51 | 77 | 1016.7 |
| 20260831073803 | 20 | 275 | 1.6 | 8.0 | 0.00 | 0.51 | 0.51 | 80 | 1016.7 |
| 20260831071803 | 19 | 294 | 0.0 | 3.2 | 0.00 | 0.51 | 0.51 | 85 | 1016.7 |
| 20260831071305 | 19 | 310 | 0.0 | 1.6 | 0.00 | 0.51 | 0.51 | 89 | 1016.7 |
| 20260831070803 | 19 | 270 | 0.0 | 1.6 | 0.00 | 0.51 | 0.51 | 86 | 1016.7 |
| 20260831070304 | 18 | 318 | 0.0 | 1.6 | 0.00 | 0.51 | 0.51 | 89 | 1016.7 |
| 20260831065804 | 18 | 288 | 0.0 | 1.6 | 0.00 | 0.51 | 0.51 | 91 | 1016.7 |
| 20260831064804 | 18 | 298 | 0.0 | 4.8 | 0.00 | 0.51 | 0.51 | 92 | 1016.7 |
| 20260831064303 | 18 | 250 | 0.0 | 0.0 | 0.00 | 0.51 | 0.51 | 93 | 1016.7 |
| 20260831063803 | 18 | 248 | 0.0 | 1.6 | 0.00 | 0.51 | 0.51 | 94 | 1016.7 |
| 20260831063304 | 17 | 302 | 0.0 | 1.6 | 0.00 | 0.51 | 0.51 | 95 | 1016.7 |
| 20260831062804 | 17 | 129 | 0.0 | 0.0 | 0.00 | 0.51 | 0.51 | 95 | 1016.7 |
| 20260831062305 | 17 | 140 | 0.0 | 0.0 | 0.00 | 0.51 | 0.51 | 95 | 1016.7 |
| 20260831061804 | 17 | 175 | 0.0 | 0.0 | 0.00 | 0.51 | 0.51 | 97 | 1016.7 |
| 20260831060804 | 16 | 175 | 0.0 | 0.0 | 0.00 | 0.51 | 0.51 | 100 | 1016.7 |
| 20260831060303 | 16 | 250 | 0.0 | 0.0 | 0.00 | 0.51 | 0.51 | 100 | 1016.7 |
| 20260831055804 | 16 | 250 | 0.0 | 0.0 | 0.00 | 0.51 | 0.51 | 100 | 1016.7 |
| 20260831055306 | 16 | 250 | 0.0 | 0.0 | 0.00 | 0.51 | 0.51 | 100 | 1016.7 |
| 20260831054803 | 16 | 250 | 0.0 | 0.0 | 0.00 | 0.51 | 0.51 | 100 | 1016.7 |
| 20260831054304 | 16 | 250 | 0.0 | 0.0 | 0.00 | 0.51 | 0.51 | 100 | 1016.7 |
| 20260831053804 | 16 | 250 | 0.0 | 0.0 | 0.00 | 0.51 | 0.51 | 100 | 1016.7 |
| 20260831053303 | 16 | 250 | 0.0 | 0.0 | 0.00 | 0.51 | 0.51 | 100 | 1016.7 |
| 20260831052804 | 16 | 250 | 0.0 | 0.0 | 0.00 | 0.51 | 0.51 | 100 | 1016.4 |
| 20260831052306 | 16 | 250 | 0.0 | 0.0 | 0.00 | 0.51 | 0.51 | 99 | 1016.4 |
| 20260831051804 | 16 | 250 | 0.0 | 0.0 | 0.00 | 0.51 | 0.51 | 98 | 1016.4 |
| 20260831051304 | 16 | 250 | 0.0 | 0.0 | 0.00 | 0.51 | 0.51 | 98 | 1016.4 |
| 20260831050804 | 16 | 250 | 0.0 | 0.0 | 0.00 | 0.51 | 0.51 | 98 | 1016.4 |
| 20260831050303 | 16 | 204 | 0.0 | 0.0 | 0.00 | 0.51 | 0.51 | 98 | 1016.4 |
| 20260831045803 | 16 | 204 | 0.0 | 8.0 | 0.00 | 0.51 | 0.51 | 98 | 1016.2 |
| 20260831045306 | 16 | 260 | 0.0 | 0.0 | 0.00 | 0.51 | 0.51 | 98 | 1016.2 |
| 20260831044804 | 16 | 260 | 0.0 | 0.0 | 0.00 | 0.51 | 0.51 | 98 | 1016.2 |
| 20260831044304 | 16 | 260 | 0.0 | 1.6 | 0.00 | 0.51 | 0.51 | 98 | 1016.2 |
| 20260831043804 | 16 | 344 | 0.0 | 0.0 | 0.00 | 0.51 | 0.51 | 98 | 1016.2 |
| 20260831043303 | 16 | 344 | 0.0 | 0.0 | 0.00 | 0.51 | 0.51 | 98 | 1016.2 |
| 20260831042803 | 17 | 344 | 0.0 | 0.0 | 0.00 | 0.51 | 0.51 | 99 | 1016.2 |
| 20260831042307 | 17 | 85 | 0.0 | 0.0 | 0.00 | 0.51 | 0.51 | 99 | 1016.2 |
| 20260831041304 | 17 | 98 | 0.0 | 0.0 | 0.00 | 0.51 | 0.51 | 100 | 1016.2 |
| 20260831040804 | 17 | 97 | 0.0 | 0.0 | 0.00 | 0.51 | 0.51 | 100 | 1016.2 |
| 20260831040303 | 16 | 97 | 0.0 | 0.0 | 0.00 | 0.51 | 0.51 | 100 | 1016.0 |
| 20260831035804 | 16 | 97 | 0.0 | 0.0 | 0.00 | 0.51 | 0.51 | 100 | 1015.7 |
| 20260831035306 | 16 | 97 | 0.0 | 0.0 | 0.00 | 0.51 | 0.51 | 100 | 1015.7 |
| 20260831034804 | 16 | 97 | 0.0 | 0.0 | 0.00 | 0.51 | 0.51 | 100 | 1015.7 |
| 20260831034304 | 16 | 97 | 0.0 | 0.0 | 0.00 | 0.51 | 0.51 | 100 | 1015.7 |
| 20260831032804 | 16 | 97 | 0.0 | 0.0 | 0.00 | 0.51 | 0.51 | 100 | 1015.6 |
| 20260831031803 | 16 | 97 | 0.0 | 0.0 | 0.00 | 0.51 | 0.51 | 100 | 1015.5 |
| 20260831025803 | 16 | 97 | 0.0 | 0.0 | 0.03 | 0.51 | 0.51 | 100 | 1015.5 |
| 20260831025306 | 16 | 97 | 0.0 | 0.0 | 0.03 | 0.51 | 0.51 | 100 | 1015.3 |
| 20260831024804 | 16 | 98 | 0.0 | 0.0 | 0.03 | 0.51 | 0.51 | 100 | 1015.3 |
| 20260831024304 | 16 | 98 | 0.0 | 0.0 | 0.03 | 0.51 | 0.51 | 100 | 1015.3 |
| 20260831023804 | 16 | 98 | 0.0 | 0.0 | 0.03 | 0.51 | 0.51 | 100 | 1015.3 |
| 20260831023303 | 16 | 98 | 0.0 | 0.0 | 0.03 | 0.51 | 0.51 | 100 | 1015.4 |
| 20260831022306 | 16 | 98 | 0.0 | 0.0 | 0.03 | 0.51 | 0.51 | 100 | 1015.4 |
| 20260831021804 | 16 | 98 | 0.0 | 0.0 | 0.03 | 0.51 | 0.51 | 100 | 1015.4 |
| 20260831021303 | 16 | 98 | 0.0 | 0.0 | 0.03 | 0.51 | 0.51 | 100 | 1015.2 |
| 20260831020804 | 16 | 98 | 0.0 | 0.0 | 0.05 | 0.51 | 0.51 | 100 | 1015.1 |
| 20260831020304 | 16 | 98 | 0.0 | 0.0 | 0.03 | 0.48 | 0.48 | 99 | 1014.9 |
| 20260831015804 | 16 | 98 | 0.0 | 0.0 | 0.03 | 0.48 | 0.48 | 99 | 1014.9 |
| 20260831015305 | 16 | 98 | 0.0 | 0.0 | 0.03 | 0.48 | 0.48 | 99 | 1014.9 |
| 20260831014804 | 16 | 97 | 0.0 | 0.0 | 0.03 | 0.48 | 0.48 | 99 | 1014.9 |
| 20260831014304 | 16 | 98 | 0.0 | 0.0 | 0.05 | 0.48 | 0.48 | 99 | 1015.4 |
| 20260831013804 | 17 | 101 | 0.0 | 0.0 | 0.05 | 0.48 | 0.48 | 99 | 1015.4 |
| 20260831012803 | 17 | 189 | 0.0 | 0.0 | 0.15 | 0.48 | 0.48 | 98 | 1015.4 |
| 20260831012306 | 17 | 150 | 0.0 | 0.0 | 0.15 | 0.48 | 0.48 | 98 | 1015.4 |
| 20260831011803 | 17 | 165 | 0.0 | 0.0 | 0.23 | 0.48 | 0.48 | 98 | 1015.5 |
| 20260831011304 | 17 | 113 | 0.0 | 3.2 | 0.46 | 0.48 | 0.48 | 98 | 1015.5 |
| 20260831010804 | 17 | 69 | 0.0 | 1.6 | 0.46 | 0.46 | 0.46 | 98 | 1015.1 |
| 20260831010304 | 17 | 105 | 0.0 | 1.6 | 0.46 | 0.46 | 0.46 | 98 | 1015.1 |
| 20260831005804 | 17 | 115 | 0.0 | 1.6 | 0.46 | 0.46 | 0.46 | 98 | 1015.1 |
| 20260831005306 | 17 | 146 | 0.0 | 1.6 | 0.46 | 0.46 | 0.46 | 98 | 1015.1 |
| 20260831004804 | 17 | 355 | 0.0 | 0.0 | 0.46 | 0.46 | 0.46 | 98 | 1015.1 |
| 20260831004303 | 17 | 266 | 0.0 | 1.6 | 0.43 | 0.43 | 0.43 | 98 | 1015.1 |
| 20260831003303 | 17 | 354 | 0.0 | 4.8 | 0.38 | 0.38 | 0.38 | 97 | 1015.1 |
| 20260831002804 | 17 | 261 | 1.6 | 8.0 | 0.33 | 0.33 | 0.33 | 97 | 1015.1 |
| 20260831001803 | 17 | 333 | 1.6 | 8.0 | 0.23 | 0.23 | 0.23 | 97 | 1015.1 |
| 20260831001304 | 16 | 308 | 1.6 | 14.5 | 0.03 | 0.03 | 0.03 | 94 | 1015.1 |
| 20260831000804 | 16 | 260 | 0.0 | 0.0 | 0.00 | 0.00 | 0.00 | 95 | 1013.6 |
| 20260831000304 | 15 | 260 | 0.0 | 0.0 | 0.00 | 0.00 | 0.00 | 96 | 1013.6 |
| 20260830235306 | 15 | 260 | 0.0 | 0.0 | 0.00 | 0.00 | 0.00 | 96 | 1013.7 |
| 20260830234804 | 15 | 260 | 0.0 | 0.0 | 0.00 | 0.00 | 0.00 | 96 | 1013.7 |
| 20260830234305 | 15 | 260 | 0.0 | 0.0 | 0.00 | 0.00 | 0.00 | 95 | 1013.7 |
| 20260830233804 | 15 | 260 | 0.0 | 0.0 | 0.00 | 0.00 | 0.00 | 96 | 1013.7 |
| 20260830233304 | 15 | 260 | 0.0 | 0.0 | 0.00 | 0.00 | 0.00 | 95 | 1013.9 |
| 20260830232803 | 15 | 260 | 0.0 | 0.0 | 0.00 | 0.00 | 0.00 | 95 | 1013.9 |
| 20260830232306 | 15 | 260 | 0.0 | 0.0 | 0.00 | 0.00 | 0.00 | 95 | 1013.9 |
| 20260830231803 | 15 | 260 | 0.0 | 0.0 | 0.00 | 0.00 | 0.00 | 94 | 1013.9 |
| 20260830231304 | 15 | 260 | 0.0 | 0.0 | 0.00 | 0.00 | 0.00 | 94 | 1013.9 |
| 20260830230804 | 15 | 260 | 0.0 | 0.0 | 0.00 | 0.00 | 0.00 | 95 | 1013.9 |
| 20260830230304 | 15 | 260 | 0.0 | 0.0 | 0.00 | 0.00 | 0.00 | 94 | 1013.9 |
| 20260830225305 | 15 | 260 | 0.0 | 0.0 | 0.00 | 0.00 | 0.00 | 94 | 1014.2 |
| 20260830224805 | 15 | 260 | 0.0 | 0.0 | 0.00 | 0.00 | 0.00 | 93 | 1014.2 |
| 20260830223304 | 16 | 260 | 0.0 | 0.0 | 0.00 | 0.00 | 0.00 | 93 | 1014.2 |
| 20260830222804 | 16 | 260 | 0.0 | 0.0 | 0.00 | 0.00 | 0.00 | 93 | 1014.4 |
| 20260830222306 | 15 | 260 | 0.0 | 0.0 | 0.00 | 0.00 | 0.00 | 93 | 1014.4 |
| 20260830221804 | 15 | 260 | 0.0 | 0.0 | 0.00 | 0.00 | 0.00 | 94 | 1014.4 |
| 20260830221303 | 15 | 260 | 0.0 | 0.0 | 0.00 | 0.00 | 0.00 | 94 | 1014.4 |
| 20260830220304 | 15 | 260 | 0.0 | 0.0 | 0.00 | 0.00 | 0.00 | 94 | 1014.6 |
| 20260830215803 | 15 | 260 | 0.0 | 0.0 | 0.00 | 0.00 | 0.00 | 94 | 1014.6 |
| 20260830215305 | 15 | 260 | 0.0 | 0.0 | 0.00 | 0.00 | 0.00 | 93 | 1014.6 |
| 20260830214804 | 15 | 260 | 0.0 | 0.0 | 0.00 | 0.00 | 0.00 | 93 | 1014.6 |
| 20260830214304 | 15 | 260 | 0.0 | 0.0 | 0.00 | 0.00 | 0.00 | 93 | 1014.6 |
| 20260830213803 | 15 | 260 | 0.0 | 0.0 | 0.00 | 0.00 | 0.00 | 93 | 1014.6 |
| 20260830213304 | 15 | 260 | 0.0 | 0.0 | 0.00 | 0.00 | 0.00 | 93 | 1014.6 |
| 20260830212803 | 15 | 260 | 0.0 | 0.0 | 0.00 | 0.00 | 0.00 | 93 | 1014.6 |
| 20260830212306 | 15 | 260 | 0.0 | 0.0 | 0.00 | 0.00 | 0.00 | 92 | 1014.6 |
| 20260830211303 | 15 | 260 | 0.0 | 0.0 | 0.00 | 0.00 | 0.00 | 92 | 1014.6 |
| 20260830205803 | 16 | 260 | 0.0 | 0.0 | 0.00 | 0.00 | 0.00 | 92 | 1014.6 |
| 20260830205305 | 16 | 260 | 0.0 | 0.0 | 0.00 | 0.00 | 0.00 | 91 | 1014.6 |
| 20260830204804 | 16 | 260 | 0.0 | 0.0 | 0.00 | 0.00 | 0.00 | 91 | 1014.5 |
| 20260830203804 | 16 | 260 | 0.0 | 0.0 | 0.00 | 0.00 | 0.00 | 91 | 1014.8 |
| 20260830201803 | 16 | 260 | 0.0 | 0.0 | 0.00 | 0.00 | 0.00 | 89 | 1014.8 |
| 20260830201304 | 16 | 260 | 0.0 | 0.0 | 0.00 | 0.00 | 0.00 | 89 | 1014.8 |
| 20260830200804 | 16 | 260 | 0.0 | 0.0 | 0.00 | 0.00 | 0.00 | 88 | 1014.8 |
| 20260830200303 | 16 | 260 | 0.0 | 0.0 | 0.00 | 0.00 | 0.00 | 88 | 1014.8 |
| 20260830195805 | 17 | 260 | 0.0 | 0.0 | 0.00 | 0.00 | 0.00 | 87 | 1014.8 |
| 20260830195305 | 17 | 260 | 0.0 | 0.0 | 0.00 | 0.00 | 0.00 | 87 | 1014.8 |
| 20260830194305 | 17 | 260 | 0.0 | 0.0 | 0.00 | 0.00 | 0.00 | 86 | 1014.8 |
| 20260830193803 | 17 | 260 | 0.0 | 0.0 | 0.00 | 0.00 | 0.00 | 86 | 1014.8 |
| 20260830192804 | 17 | 260 | 0.0 | 0.0 | 0.00 | 0.00 | 0.00 | 85 | 1014.8 |
| 20260830192305 | 17 | 260 | 0.0 | 0.0 | 0.00 | 0.00 | 0.00 | 83 | 1014.8 |
| 20260830191303 | 18 | 260 | 0.0 | 0.0 | 0.00 | 0.00 | 0.00 | 82 | 1014.8 |
| 20260830190804 | 18 | 260 | 0.0 | 0.0 | 0.00 | 0.00 | 0.00 | 83 | 1014.8 |
| 20260830185804 | 18 | 260 | 0.0 | 0.0 | 0.00 | 0.00 | 0.00 | 80 | 1014.6 |
| 20260830185306 | 18 | 260 | 0.0 | 0.0 | 0.00 | 0.00 | 0.00 | 79 | 1014.6 |
| 20260830184304 | 19 | 260 | 0.0 | 0.0 | 0.00 | 0.00 | 0.00 | 77 | 1014.6 |
| 20260830183804 | 20 | 260 | 0.0 | 0.0 | 0.00 | 0.00 | 0.00 | 76 | 1014.6 |
| 20260830183305 | 20 | 260 | 0.0 | 0.0 | 0.00 | 0.00 | 0.00 | 75 | 1014.6 |
| 20260830182805 | 20 | 260 | 0.0 | 0.0 | 0.00 | 0.00 | 0.00 | 75 | 1014.4 |
| 20260830182306 | 20 | 260 | 0.0 | 0.0 | 0.00 | 0.00 | 0.00 | 73 | 1014.4 |
| 20260830181305 | 21 | 260 | 0.0 | 0.0 | 0.00 | 0.00 | 0.00 | 73 | 1014.4 |
| 20260830180804 | 21 | 260 | 0.0 | 0.0 | 0.00 | 0.00 | 0.00 | 71 | 1014.3 |
| 20260830180304 | 21 | 260 | 0.0 | 0.0 | 0.00 | 0.00 | 0.00 | 69 | 1014.3 |
| 20260830175306 | 22 | 260 | 0.0 | 0.0 | 0.00 | 0.00 | 0.00 | 65 | 1014.3 |
| 20260830174805 | 23 | 260 | 0.0 | 0.0 | 0.00 | 0.00 | 0.00 | 62 | 1014.5 |
| 20260830174304 | 23 | 260 | 0.0 | 0.0 | 0.00 | 0.00 | 0.00 | 60 | 1014.5 |
| 20260830173805 | 23 | 260 | 0.0 | 0.0 | 0.00 | 0.00 | 0.00 | 58 | 1014.5 |
| 20260830172306 | 24 | 285 | 0.0 | 3.2 | 0.00 | 0.00 | 0.00 | 57 | 1014.5 |
| 20260830171804 | 25 | 253 | 0.0 | 1.6 | 0.00 | 0.00 | 0.00 | 57 | 1014.5 |
| 20260830171304 | 25 | 315 | 0.0 | 0.0 | 0.00 | 0.00 | 0.00 | 57 | 1014.4 |
| 20260830170804 | 25 | 275 | 0.0 | 4.8 | 0.00 | 0.00 | 0.00 | 56 | 1014.4 |
| 20260830170305 | 25 | 303 | 0.0 | 1.6 | 0.00 | 0.00 | 0.00 | 55 | 1014.4 |
| 20260830165804 | 25 | 295 | 0.0 | 3.2 | 0.00 | 0.00 | 0.00 | 55 | 1014.4 |
| 20260830165306 | 26 | 288 | 0.0 | 11.3 | 0.00 | 0.00 | 0.00 | 54 | 1014.4 |
| 20260830164805 | 26 | 279 | 0.0 | 1.6 | 0.00 | 0.00 | 0.00 | 53 | 1014.5 |
| 20260830164304 | 26 | 317 | 0.0 | 8.0 | 0.00 | 0.00 | 0.00 | 53 | 1014.5 |
| 20260830163805 | 26 | 342 | 1.6 | 8.0 | 0.00 | 0.00 | 0.00 | 52 | 1014.5 |
| 20260830163304 | 27 | 338 | 1.6 | 4.8 | 0.00 | 0.00 | 0.00 | 52 | 1014.5 |
| 20260830162804 | 27 | 292 | 0.0 | 3.2 | 0.00 | 0.00 | 0.00 | 52 | 1014.6 |
| 20260830162306 | 27 | 346 | 0.0 | 4.8 | 0.00 | 0.00 | 0.00 | 52 | 1014.6 |
| 20260830161805 | 27 | 255 | 0.0 | 1.6 | 0.00 | 0.00 | 0.00 | 53 | 1014.6 |
| 20260830154803 | 27 | 280 | 0.0 | 4.8 | 0.00 | 0.00 | 0.00 | 54 | 1014.7 |
| 20260830154303 | 27 | 258 | 1.6 | 8.0 | 0.00 | 0.00 | 0.00 | 54 | 1014.7 |
| 20260830153804 | 27 | 269 | 0.0 | 3.2 | 0.00 | 0.00 | 0.00 | 55 | 1014.7 |
| 20260830152804 | 27 | 270 | 0.0 | 12.9 | 0.00 | 0.00 | 0.00 | 58 | 1014.7 |
| 20260830151303 | 26 | 323 | 0.0 | 4.8 | 0.00 | 0.00 | 0.00 | 59 | 1014.8 |
| 20260830150804 | 26 | 256 | 0.0 | 1.6 | 0.00 | 0.00 | 0.00 | 59 | 1014.8 |
| 20260830145804 | 26 | 301 | 1.6 | 8.0 | 0.00 | 0.00 | 0.00 | 61 | 1014.8 |
| 20260830145306 | 26 | 203 | 1.6 | 8.0 | 0.00 | 0.00 | 0.00 | 60 | 1014.8 |
| 20260830144803 | 26 | 267 | 0.0 | 8.0 | 0.00 | 0.00 | 0.00 | 62 | 1014.9 |
| 20260830143804 | 26 | 305 | 0.0 | 3.2 | 0.00 | 0.00 | 0.00 | 64 | 1014.9 |
| 20260830143304 | 26 | 67 | 0.0 | 0.0 | 0.00 | 0.00 | 0.00 | 62 | 1014.9 |
| 20260830142803 | 26 | 326 | 0.0 | 8.0 | 0.00 | 0.00 | 0.00 | 63 | 1014.9 |
| 20260830142305 | 26 | 277 | 0.0 | 8.0 | 0.00 | 0.00 | 0.00 | 62 | 1014.9 |
| 20260830141303 | 26 | 268 | 1.6 | 19.3 | 0.00 | 0.00 | 0.00 | 64 | 1014.9 |
| 20260830140803 | 26 | 305 | 0.0 | 0.0 | 0.00 | 0.00 | 0.00 | 63 | 1014.9 |
| 20260830140304 | 27 | 349 | 0.0 | 1.6 | 0.00 | 0.00 | 0.00 | 62 | 1015.1 |
| 20260830135804 | 26 | 234 | 0.0 | 8.0 | 0.00 | 0.00 | 0.00 | 63 | 1015.1 |
| 20260830135306 | 26 | 5 | 0.0 | 3.2 | 0.00 | 0.00 | 0.00 | 63 | 1015.1 |
| 20260830134804 | 26 | 320 | 0.0 | 8.0 | 0.00 | 0.00 | 0.00 | 63 | 1015.4 |
| 20260830134304 | 26 | 308 | 0.0 | 4.8 | 0.00 | 0.00 | 0.00 | 63 | 1015.4 |
| 20260830133804 | 26 | 316 | 1.6 | 8.0 | 0.00 | 0.00 | 0.00 | 62 | 1015.4 |
| 20260830133303 | 26 | 285 | 0.0 | 8.0 | 0.00 | 0.00 | 0.00 | 63 | 1015.4 |
| 20260830132804 | 26 | 270 | 3.2 | 14.5 | 0.00 | 0.00 | 0.00 | 64 | 1015.7 |
| 20260830132305 | 26 | 245 | 0.0 | 1.6 | 0.00 | 0.00 | 0.00 | 65 | 1015.7 |
| 20260830131803 | 26 | 352 | 0.0 | 8.0 | 0.00 | 0.00 | 0.00 | 65 | 1015.7 |
| 20260830131303 | 25 | 302 | 0.0 | 8.0 | 0.00 | 0.00 | 0.00 | 67 | 1015.7 |
| 20260830130803 | 25 | 203 | 0.0 | 3.2 | 0.00 | 0.00 | 0.00 | 67 | 1015.7 |
| 20260830125804 | 25 | 35 | 0.0 | 8.0 | 0.00 | 0.00 | 0.00 | 67 | 1015.7 |
| 20260830124803 | 25 | 272 | 0.0 | 4.8 | 0.00 | 0.00 | 0.00 | 68 | 1015.7 |
| 20260830124304 | 25 | 267 | 0.0 | 3.2 | 0.00 | 0.00 | 0.00 | 67 | 1015.7 |
| 20260830123804 | 25 | 313 | 0.0 | 1.6 | 0.00 | 0.00 | 0.00 | 68 | 1015.7 |
| 20260830123303 | 25 | 324 | 0.0 | 1.6 | 0.00 | 0.00 | 0.00 | 66 | 1015.7 |
| 20260830122803 | 25 | 304 | 0.0 | 4.8 | 0.00 | 0.00 | 0.00 | 65 | 1015.7 |
| 20260830122306 | 26 | 266 | 0.0 | 8.0 | 0.00 | 0.00 | 0.00 | 64 | 1015.7 |
| 20260830121804 | 26 | 324 | 0.0 | 1.6 | 0.00 | 0.00 | 0.00 | 64 | 1015.9 |
| 20260830121303 | 26 | 27 | 0.0 | 4.8 | 0.00 | 0.00 | 0.00 | 64 | 1015.9 |
| 20260830120303 | 25 | 241 | 3.2 | 8.0 | 0.00 | 0.00 | 0.00 | 65 | 1015.9 |
| 20260830115804 | 25 | 322 | 1.6 | 8.0 | 0.00 | 0.00 | 0.00 | 65 | 1015.9 |
| 20260830115306 | 25 | 327 | 1.6 | 8.0 | 0.00 | 0.00 | 0.00 | 65 | 1015.9 |
| 20260830114803 | 25 | 299 | 1.6 | 4.8 | 0.00 | 0.00 | 0.00 | 64 | 1015.9 |
| 20260830113803 | 25 | 309 | 1.6 | 8.0 | 0.00 | 0.00 | 0.00 | 66 | 1015.9 |
| 20260830113304 | 25 | 264 | 3.2 | 8.0 | 0.00 | 0.00 | 0.00 | 65 | 1015.9 |
| 20260830112804 | 25 | 282 | 1.6 | 11.3 | 0.00 | 0.00 | 0.00 | 63 | 1015.9 |
| 20260830112306 | 26 | 340 | 0.0 | 16.1 | 0.00 | 0.00 | 0.00 | 64 | 1016.0 |
| 20260830111803 | 26 | 308 | 1.6 | 11.3 | 0.00 | 0.00 | 0.00 | 64 | 1016.0 |
| 20260830111303 | 25 | 202 | 1.6 | 8.0 | 0.00 | 0.00 | 0.00 | 64 | 1016.0 |
| 20260830110803 | 25 | 304 | 1.6 | 9.7 | 0.00 | 0.00 | 0.00 | 65 | 1016.0 |
| 20260830110303 | 25 | 320 | 0.0 | 3.2 | 0.00 | 0.00 | 0.00 | 65 | 1016.0 |
| 20260830105804 | 26 | 338 | 0.0 | 8.0 | 0.00 | 0.00 | 0.00 | 62 | 1016.2 |
| 20260830104803 | 26 | 321 | 0.0 | 1.6 | 0.00 | 0.00 | 0.00 | 65 | 1016.2 |
| 20260830104303 | 25 | 285 | 0.0 | 4.8 | 0.00 | 0.00 | 0.00 | 69 | 1016.2 |
| 20260830103303 | 24 | 265 | 1.6 | 8.0 | 0.00 | 0.00 | 0.00 | 67 | 1016.2 |
| 20260830102306 | 25 | 311 | 1.6 | 9.7 | 0.00 | 0.00 | 0.00 | 67 | 1016.2 |
| 20260830101803 | 25 | 306 | 3.2 | 4.8 | 0.00 | 0.00 | 0.00 | 68 | 1016.3 |
| 20260830100803 | 25 | 297 | 1.6 | 8.0 | 0.00 | 0.00 | 0.00 | 67 | 1016.3 |
| 20260830100303 | 25 | 317 | 3.2 | 9.7 | 0.00 | 0.00 | 0.00 | 67 | 1016.3 |
| 20260830095803 | 25 | 301 | 1.6 | 3.2 | 0.00 | 0.00 | 0.00 | 69 | 1016.3 |
| 20260830095306 | 24 | 326 | 1.6 | 8.0 | 0.00 | 0.00 | 0.00 | 69 | 1016.3 |
| 20260830094304 | 23 | 257 | 0.0 | 1.6 | 0.00 | 0.00 | 0.00 | 71 | 1016.3 |
| 20260830093804 | 23 | 311 | 1.6 | 3.2 | 0.00 | 0.00 | 0.00 | 70 | 1016.6 |
| 20260830093303 | 23 | 9 | 1.6 | 9.7 | 0.00 | 0.00 | 0.00 | 71 | 1016.6 |
| 20260830092804 | 23 | 272 | 1.6 | 8.0 | 0.00 | 0.00 | 0.00 | 71 | 1016.6 |
| 20260830092306 | 23 | 218 | 0.0 | 8.0 | 0.00 | 0.00 | 0.00 | 72 | 1016.4 |
| 20260830091804 | 22 | 233 | 3.2 | 11.3 | 0.00 | 0.00 | 0.00 | 72 | 1016.4 |
| 20260830091304 | 22 | 206 | 1.6 | 12.9 | 0.00 | 0.00 | 0.00 | 71 | 1016.4 |
| 20260830090804 | 23 | 255 | 3.2 | 12.9 | 0.00 | 0.00 | 0.00 | 70 | 1016.4 |
| 20260830090303 | 23 | 174 | 1.6 | 4.8 | 0.00 | 0.00 | 0.00 | 71 | 1016.4 |